| time (UTC) | temp F | wind direction | speed MPH | gust MPH | rain 1hr in | rain 24hr in | rain mn in | humidity % | barometer mb |
| 20260503184531 | 48 | 214 | 6.0 | 10.0 | 0.12 | 0.13 | 0.13 | 88 | 1013.9 |
| 20260503183030 | 49 | 250 | 6.0 | 15.0 | 0.06 | 0.06 | 0.06 | 87 | 1014.4 |
| 20260503181528 | 49 | 233 | 10.0 | 21.0 | 0.04 | 0.04 | 0.04 | 84 | 1014.6 |
| 20260503180039 | 49 | 245 | 9.0 | 14.0 | 0.03 | 0.03 | 0.03 | 83 | 1014.6 |
| 20260503174529 | 50 | 256 | 9.0 | 26.0 | 0.01 | 0.01 | 0.01 | 80 | 1015.0 |
| 20260503173034 | 51 | 265 | 15.0 | 23.0 | 0.00 | 0.00 | 0.00 | 74 | 1015.0 |
| 20260503171538 | 53 | 260 | 16.0 | 32.0 | 0.00 | 0.00 | 0.00 | 69 | 1014.7 |
| 20260503081538 | 42 | 235 | 5.0 | 11.0 | 0.00 | 0.00 | 0.00 | 68 | 1016.0 |
| 20260503071530 | 42 | 249 | 4.0 | 9.0 | 0.00 | 0.00 | 0.00 | 68 | 1016.3 |
| 20260503054537 | 44 | 233 | 5.0 | 10.0 | 0.00 | 0.00 | 0.00 | 66 | 1017.0 |
| 20260503053028 | 44 | 238 | 5.0 | 10.0 | 0.00 | 0.00 | 0.00 | 65 | 1017.1 |
| 20260503051526 | 44 | 232 | 5.0 | 10.0 | 0.00 | 0.00 | 0.00 | 64 | 1017.1 |
| 20260503050028 | 45 | 231 | 4.0 | 10.0 | 0.00 | 0.00 | 0.00 | 63 | 1017.3 |
| 20260503044528 | 45 | 224 | 4.0 | 8.0 | 0.00 | 0.00 | 0.00 | 62 | 1017.3 |
| 20260503043031 | 45 | 219 | 4.0 | 9.0 | 0.00 | 0.00 | 0.00 | 60 | 1017.2 |
| 20260503041528 | 46 | 233 | 4.0 | 9.0 | 0.00 | 0.00 | 0.00 | 59 | 1017.3 |
| 20260503040028 | 46 | 231 | 5.0 | 10.0 | 0.00 | 0.00 | 0.00 | 58 | 1017.4 |
| 20260503034527 | 46 | 224 | 4.0 | 9.0 | 0.00 | 0.00 | 0.00 | 57 | 1017.4 |
| 20260503033041 | 47 | 248 | 4.0 | 8.0 | 0.00 | 0.00 | 0.00 | 57 | 1017.4 |
| 20260503031528 | 47 | 219 | 3.0 | 8.0 | 0.00 | 0.00 | 0.00 | 56 | 1017.5 |
| 20260503030028 | 47 | 225 | 2.0 | 6.0 | 0.00 | 0.00 | 0.00 | 55 | 1017.5 |
| 20260503024528 | 47 | 219 | 2.0 | 5.0 | 0.00 | 0.00 | 0.00 | 54 | 1017.6 |
| 20260503023028 | 48 | 216 | 1.0 | 7.0 | 0.00 | 0.00 | 0.00 | 53 | 1017.6 |
| 20260503021529 | 48 | 231 | 3.0 | 6.0 | 0.00 | 0.00 | 0.00 | 52 | 1017.5 |
| 20260503020028 | 48 | 202 | 4.0 | 7.0 | 0.00 | 0.00 | 0.00 | 51 | 1017.5 |
| 20260503014541 | 49 | 200 | 3.0 | 5.0 | 0.00 | 0.00 | 0.00 | 49 | 1017.6 |
| 20260503013034 | 49 | 210 | 4.0 | 6.0 | 0.00 | 0.00 | 0.00 | 48 | 1017.5 |
| 20260503011530 | 49 | 207 | 1.0 | 3.0 | 0.00 | 0.00 | 0.00 | 48 | 1017.4 |
| 20260503010031 | 50 | 191 | 2.0 | 3.0 | 0.00 | 0.00 | 0.00 | 46 | 1017.4 |
| 20260503004530 | 51 | 202 | 0.0 | 2.0 | 0.00 | 0.00 | 0.00 | 44 | 1017.3 |
| 20260503003029 | 52 | 215 | 1.0 | 1.0 | 0.00 | 0.00 | 0.00 | 42 | 1017.5 |
| 20260503001530 | 51 | 0 | 0.0 | 1.0 | 0.00 | 0.00 | 0.00 | 43 | 1017.5 |
| 20260503000029 | 52 | 236 | 0.0 | 2.0 | 0.00 | 0.00 | 0.00 | 43 | 1017.5 |
| 20260502234526 | 52 | 248 | 1.0 | 4.0 | 0.00 | 0.00 | 0.00 | 42 | 1017.4 |
| 20260502233028 | 52 | 264 | 2.0 | 5.0 | 0.00 | 0.00 | 0.00 | 41 | 1017.5 |
| 20260502231528 | 53 | 266 | 1.0 | 6.0 | 0.00 | 0.00 | 0.00 | 42 | 1017.6 |
| 20260502230029 | 53 | 269 | 3.0 | 13.0 | 0.00 | 0.00 | 0.00 | 38 | 1017.6 |
| 20260502224529 | 53 | 314 | 6.0 | 18.0 | 0.00 | 0.00 | 0.00 | 38 | 1017.6 |
| 20260502223030 | 53 | 305 | 8.0 | 13.0 | 0.00 | 0.00 | 0.00 | 40 | 1017.8 |
| 20260502221529 | 54 | 0 | 0.0 | 7.0 | 0.00 | 0.00 | 0.00 | 42 | 1017.8 |
| 20260502220028 | 53 | 37 | 1.0 | 10.0 | 0.00 | 0.00 | 0.00 | 38 | 1017.8 |
| 20260502214530 | 52 | 0 | 2.0 | 9.0 | 0.00 | 0.00 | 0.00 | 39 | 1017.7 |
| 20260502213030 | 52 | 330 | 9.0 | 13.0 | 0.00 | 0.00 | 0.00 | 37 | 1018.0 |
| 20260502211539 | 52 | 333 | 7.0 | 13.0 | 0.00 | 0.00 | 0.00 | 38 | 1017.9 |
| 20260502210034 | 52 | 335 | 10.0 | 14.0 | 0.00 | 0.00 | 0.00 | 38 | 1018.0 |
| 20260502204526 | 52 | 311 | 5.0 | 12.0 | 0.00 | 0.00 | 0.00 | 39 | 1018.2 |
| 20260502203026 | 51 | 333 | 8.0 | 14.0 | 0.00 | 0.00 | 0.00 | 36 | 1018.4 |
| 20260502201534 | 51 | 321 | 9.0 | 16.0 | 0.00 | 0.00 | 0.00 | 37 | 1018.7 |
| 20260502200028 | 51 | 338 | 10.0 | 15.0 | 0.00 | 0.00 | 0.00 | 33 | 1018.8 |
| 20260502194528 | 51 | 323 | 9.0 | 18.0 | 0.00 | 0.00 | 0.00 | 44 | 1018.9 |
| 20260502193026 | 50 | 14 | 11.0 | 18.0 | 0.00 | 0.00 | 0.00 | 42 | 1019.1 |
| 20260502191526 | 50 | 322 | 4.0 | 14.0 | 0.00 | 0.00 | 0.00 | 45 | 1019.2 |
| 20260502190042 | 50 | 321 | 10.0 | 18.0 | 0.00 | 0.00 | 0.00 | 46 | 1019.5 |